< < Back
Terminal Aerodrome Forecast


Current Version              Previous Versions:   1  2  3  4  5  6  7  8  9  

Terminal Aerodrome Forecast

143
FTUS42 KMLB 200900 AAA
TAFMCO
TAF AMD
KMCO 200930Z 2010/2106 00000KT P6SM FEW035 SCT150 BKN250
     FM201500 19005KT P6SM SCT100 BKN250
     FM202300 10004KT P6SM BKN100 OVC250=



Latest METAR

903
SAUS70 KWBC 201900 RRL
MTRMCO
METAR KMCO 201853Z VRB05KT 10SM FEW041 BKN130 24/15 A3004 RMK AO2 SLP172
T02440150


USA.gov is the U.S. government's official web portal to all federal, state and local government web resources and services.